Weather History for Appleton, MN

Change the Weather History Date:

Sunday, November 6, 2011

  Actual Average Record
Temperature  
Mean Temperature 45 °F -  
Max Temperature 51 °F 42 °F 64 °F (2004)
Min Temperature 39 °F 25 °F 3 °F (2003)
Degree Days  
Heating Degree Days 20    
Moisture  
Dew Point 34 °F    
Average Humidity 67    
Maximum Humidity 93    
Minimum Humidity 34    
Precipitation  
Precipitation 0.01 in - - ()
Sea Level Pressure  
Sea Level Pressure 29.58 in    
Wind  
Wind Speed 15 mph (SW)    
Max Wind Speed 29 mph    
Max Gust Speed 33 mph    
Visibility 10 miles    
Events Rain    
Averages and records for this station are not official NWS values.
T = Trace of Precipitation, MM = Missing Value Source: NWS Daily Summary

Daily Weather History Graph

Daily Weather History Graph

Search for Another Location

Airport:

Trip Planner

Search our weather history database for the weather conditions in past years. The results will help you decide how hot, cold, wet, or windy it might be!

Date:

Astronomy

Nov. 06, 2011 Rise Set
Actual Time 7:09 AM CST 5:05 PM CST
Civil Twilight 6:38 AM CST 5:36 PM CST
Nautical Twilight 6:03 AM CST 6:11 PM CST
Astronomical Twilight 5:28 AM CST 6:45 PM CST
Moon 2:57 PM CST (11/6) 3:07 AM CST (11/6)
Length of Visible Light 10h 57m
Length of Day
9h 55m
Waxing Gibbous, 86% of the Moon is Illuminated
Nov 6
Waxing Gibbous
Nov 10
Full
Nov 18
Last Quarter
Nov 25
New
Dec 2
First Quarter

Hourly Weather History & Observations

Time (CST) Temp. Windchill Dew Point Humidity Pressure Visibility Wind Dir Wind Speed Gust Speed Precip Events Conditions
12:35 AM 51.8 °F - 42.8 °F 71% 29.52 in 10.0 mi SSE 13.8 mph 20.7 mph N/A   Clear
12:55 AM 50.0 °F - 42.8 °F 76% 29.52 in 10.0 mi SSE 13.8 mph 20.7 mph N/A   Scattered Clouds
1:15 AM 50.0 °F - 42.8 °F 76% 29.51 in 10.0 mi SSE 12.7 mph - N/A   Scattered Clouds
1:35 AM 50.0 °F - 42.8 °F 76% 29.51 in 10.0 mi SSE 11.5 mph 17.3 mph N/A   Scattered Clouds
1:55 AM 48.2 °F - 42.8 °F 82% 29.52 in 10.0 mi SSE 9.2 mph - N/A   Scattered Clouds
1:15 AM 48.2 °F - 42.8 °F 82% 29.51 in 10.0 mi SSE 10.4 mph - N/A   Mostly Cloudy
1:35 AM 48.2 °F - 42.8 °F 82% 29.50 in 10.0 mi SSE 12.7 mph 17.3 mph N/A   Scattered Clouds
1:55 AM 50.0 °F - 42.8 °F 76% 29.50 in 10.0 mi SSE 11.5 mph 18.4 mph N/A   Clear
2:15 AM 48.2 °F - 42.8 °F 82% 29.50 in 10.0 mi SSE 13.8 mph - N/A Rain Rain
2:35 AM 48.2 °F - 44.6 °F 87% 29.50 in 7.0 mi SSE 11.5 mph - N/A Rain Light Rain
2:54 AM 48.2 °F - 44.6 °F 87% 29.48 in 10.0 mi SE 13.8 mph - 0.01 in Rain Light Rain
3:15 AM 46.4 °F 40.7 °F 44.6 °F 93% 29.46 in 10.0 mi SE 12.7 mph - N/A   Light Drizzle
3:35 AM 46.4 °F 41.1 °F 42.8 °F 87% 29.46 in 10.0 mi SE 11.5 mph 17.3 mph N/A   Mostly Cloudy
3:55 AM 46.4 °F 41.1 °F 42.8 °F 87% 29.45 in 10.0 mi SE 11.5 mph 17.3 mph N/A   Scattered Clouds
4:15 AM 46.4 °F 41.1 °F 42.8 °F 87% 29.44 in 10.0 mi SSE 11.5 mph 18.4 mph N/A   Scattered Clouds
4:55 AM 46.4 °F 41.5 °F 42.8 °F 87% 29.44 in 10.0 mi SSE 10.4 mph - N/A   Mostly Cloudy
5:15 AM 46.4 °F 41.1 °F 42.8 °F 87% 29.44 in 10.0 mi SSE 11.5 mph - N/A   Overcast
5:35 AM 46.4 °F 41.1 °F 42.8 °F 87% 29.44 in 10.0 mi SSE 11.5 mph 19.6 mph N/A   Overcast
5:55 AM 46.4 °F 41.1 °F 42.8 °F 87% 29.44 in 10.0 mi South 11.5 mph - N/A   Overcast
6:15 AM 46.4 °F 41.9 °F 41.0 °F 81% 29.43 in 10.0 mi South 9.2 mph - N/A   Scattered Clouds
6:35 AM 46.4 °F 41.9 °F 41.0 °F 81% 29.44 in 10.0 mi South 9.2 mph - N/A   Mostly Cloudy
6:54 AM 46.4 °F 41.9 °F 41.0 °F 81% 29.44 in 10.0 mi South 9.2 mph - N/A   Overcast
7:15 AM 44.6 °F 38.8 °F 39.2 °F 81% 29.47 in 10.0 mi WSW 11.5 mph 19.6 mph N/A   Overcast
7:34 AM 42.8 °F 35.4 °F 37.4 °F 81% 29.49 in 10.0 mi West 15.0 mph - N/A   Overcast
7:55 AM 42.8 °F 35.4 °F 37.4 °F 81% 29.51 in 10.0 mi WSW 15.0 mph - N/A   Overcast
8:15 AM 42.8 °F 33.3 °F 35.6 °F 76% 29.53 in 10.0 mi West 24.2 mph 28.8 mph N/A   Overcast
8:35 AM 41.0 °F 32.2 °F 35.6 °F 81% 29.54 in 10.0 mi West 18.4 mph 24.2 mph N/A   Overcast
8:55 AM 42.8 °F 35.1 °F 35.6 °F 76% 29.55 in 10.0 mi WSW 16.1 mph 25.3 mph N/A   Overcast
9:14 AM 41.0 °F 31.9 °F 35.6 °F 81% 29.56 in 10.0 mi WSW 19.6 mph - N/A   Mostly Cloudy
9:34 AM 42.8 °F 35.1 °F 35.6 °F 76% 29.57 in 10.0 mi WSW 16.1 mph 28.8 mph N/A   Mostly Cloudy
9:55 AM 42.8 °F 33.5 °F 35.6 °F 76% 29.58 in 10.0 mi WSW 23.0 mph 31.1 mph N/A   Mostly Cloudy
10:15 AM 42.8 °F 33.5 °F 33.8 °F 70% 29.59 in 10.0 mi West 23.0 mph 29.9 mph N/A   Mostly Cloudy
10:35 AM 42.8 °F 33.3 °F 32.0 °F 66% 29.60 in 10.0 mi West 24.2 mph 31.1 mph N/A   Mostly Cloudy
10:54 AM 44.6 °F 35.9 °F 32.0 °F 61% 29.61 in 10.0 mi WSW 23.0 mph 27.6 mph N/A   Mostly Cloudy
11:15 AM 44.6 °F 35.9 °F 30.2 °F 57% 29.62 in 10.0 mi West 23.0 mph 29.9 mph N/A   Mostly Cloudy
11:34 AM 44.6 °F 35.7 °F 30.2 °F 57% 29.63 in 10.0 mi WSW 24.2 mph 32.2 mph N/A   Scattered Clouds
11:54 AM 44.6 °F 35.3 °F 28.4 °F 53% 29.63 in 10.0 mi WSW 26.5 mph 32.2 mph N/A   Scattered Clouds
12:15 PM 44.6 °F 35.9 °F 28.4 °F 53% 29.65 in 10.0 mi WSW 23.0 mph 29.9 mph N/A   Scattered Clouds
12:35 PM 46.4 °F 38.5 °F 28.4 °F 50% 29.65 in 10.0 mi WSW 21.9 mph 28.8 mph N/A   Clear
12:55 PM 46.4 °F 38.3 °F 26.6 °F 46% 29.66 in 10.0 mi WSW 23.0 mph 32.2 mph N/A   Clear
1:15 PM 44.6 °F 35.7 °F 26.6 °F 49% 29.68 in 10.0 mi WSW 24.2 mph 31.1 mph N/A   Scattered Clouds
1:35 PM 48.2 °F - 26.6 °F 43% 29.69 in 10.0 mi WSW 19.6 mph 27.6 mph N/A   Scattered Clouds
2:14 PM 46.4 °F 38.1 °F 24.8 °F 43% 29.70 in 10.0 mi WSW 24.2 mph 29.9 mph N/A   Scattered Clouds
2:34 PM 46.4 °F 38.7 °F 24.8 °F 43% 29.70 in 10.0 mi WSW 20.7 mph 32.2 mph N/A   Scattered Clouds
2:55 PM 46.4 °F 38.1 °F 24.8 °F 43% 29.71 in 10.0 mi West 24.2 mph 32.2 mph N/A   Scattered Clouds
3:15 PM 46.4 °F 37.4 °F 24.8 °F 43% 29.71 in 10.0 mi West 28.8 mph 33.4 mph N/A   Scattered Clouds
3:35 PM 46.4 °F 37.9 °F 24.8 °F 43% 29.72 in 10.0 mi West 25.3 mph 32.2 mph N/A   Clear
3:55 PM 46.4 °F 38.5 °F 23.0 °F 40% 29.73 in 10.0 mi West 21.9 mph 32.2 mph N/A   Clear
4:15 PM 46.4 °F 39.0 °F 23.0 °F 40% 29.74 in 10.0 mi West 19.6 mph 29.9 mph N/A   Clear
4:35 PM 46.4 °F 39.0 °F 21.2 °F 37% 29.75 in 10.0 mi West 19.6 mph - N/A   Clear
4:55 PM 44.6 °F 37.2 °F 19.4 °F 37% 29.76 in 10.0 mi West 17.3 mph 26.5 mph N/A   Clear
5:15 PM 44.6 °F 37.8 °F 17.6 °F 34% 29.77 in 10.0 mi WSW 15.0 mph - N/A   Clear
5:35 PM 42.8 °F 37.5 °F 17.6 °F 36% 29.78 in 10.0 mi WSW 9.2 mph - N/A   Clear
5:55 PM 39.2 °F 34.2 °F 17.6 °F 42% 29.79 in 10.0 mi SW 6.9 mph - N/A   Clear
6:15 PM 39.2 °F 32.5 °F 17.6 °F 42% 29.80 in 10.0 mi SW 10.4 mph - N/A   Clear
6:35 PM 39.2 °F 33.0 °F 17.6 °F 42% 29.81 in 10.0 mi SSW 9.2 mph - N/A   Clear
6:55 PM 39.2 °F 32.5 °F 17.6 °F 42% 29.81 in 10.0 mi SW 10.4 mph - N/A   Clear
7:15 PM 39.2 °F 32.0 °F 17.6 °F 42% 29.82 in 10.0 mi SW 11.5 mph - N/A   Clear
7:35 PM 39.2 °F 32.0 °F 17.6 °F 42% 29.83 in 10.0 mi SW 11.5 mph - N/A   Clear
7:54 PM 39.2 °F 32.5 °F 17.6 °F 42% 29.84 in 10.0 mi SW 10.4 mph - N/A   Clear
8:14 PM 39.2 °F 32.0 °F 17.6 °F 42% 29.85 in 10.0 mi SW 11.5 mph - N/A   Clear
8:34 PM 37.4 °F 29.8 °F 19.4 °F 48% 29.86 in 10.0 mi SW 11.5 mph - N/A   Clear
8:54 PM 37.4 °F 30.3 °F 19.4 °F 48% 29.88 in 10.0 mi SW 10.4 mph - N/A   Clear
9:15 PM 37.4 °F 30.3 °F 19.4 °F 48% 29.89 in 10.0 mi SW 10.4 mph - N/A   Clear
9:35 PM 37.4 °F 30.3 °F 19.4 °F 48% 29.90 in 10.0 mi SW 10.4 mph - N/A   Clear
9:55 PM 37.4 °F 30.8 °F 19.4 °F 48% 29.90 in 10.0 mi SW 9.2 mph - N/A   Clear
10:15 PM 37.4 °F 30.8 °F 19.4 °F 48% 29.92 in 10.0 mi SW 9.2 mph - N/A   Scattered Clouds
10:35 PM 37.4 °F 30.8 °F 19.4 °F 48% 29.92 in 10.0 mi SW 9.2 mph - N/A   Scattered Clouds
10:55 PM 35.6 °F 28.0 °F 19.4 °F 52% 29.93 in 10.0 mi WSW 10.4 mph - N/A   Clear